DELTA 1 DEB, 7038

Orbit data source: Space-Track

DELTA 1 DEB, 7038 is space debris in SSO originally from a launch on Tue, 06 Nov 1973 UTC launched from the Air Force Western Test Range (AFWTR). Debris objects in space refer to the collection of defunct objects orbiting the Earth. Examples of debris include non-operational satellites, rocket bodies, and fragments generated from explosions, collisions, or faulty payload assembly.

Loading next visibility...
Identifier
7038, 1973-086AE
Orbit
SSO
Country
Flag of USUS
Related business
Manufacturer
Unknown
Mission
Spacecraft
Bus & Motor
Unknown
Mass
Unknown
Launch date (UTC)
1973-11-06 (52 years ago)
Launch vehicle
Unknown
Launch site
Air Force Western Test Range (AFWTR)
Object type
Payload
Rocket body
Debris
Shape & HBR
Unknown
Radar Cross Section
Medium (>0.1 m² and <1 m²)

Expand to show TLE details & history
Last TLE update: 21 hours ago

TLE from 21 hours ago
0 DELTA 1 DEB
1 07038U 73086AE  25259.03790633  .00000039  00000-0  72376-3 0  9996
2 07038 101.8986  93.1579 0128767 280.8413 235.8499 12.24378269312958
Epoch: 2025-09-16T00:54Z
TLE epoch observation values (Epoch: 2025-09-16T00:54:35.106Z)
Latitude
23.98191°
Longitude
-90.36985°
Altitude
1,634.473 km
Speed
7.03 km/s
True Right ascension
18h 34m 02s
True Declination
23° 52' 06"
Sunlit
Object was in daylight at epoch
Visualization orbit readout
Latitude
Unknown
Longitude
Unknown
Altitude
Unknown
Speed
Unknown
Apparent Right ascension
Unknown
Apparent Declination
Unknown
Sunlit
N/A
Visualization observer readout
Local Sidereal Time
14:29:37
Azimuth
Unknown
Elevation
Unknown
Doppler factor
Unknown
Orbital elements
Apogee altitude
1,673.477 km
Perigee altitude
1,468.757 km
Semi-major axis
7,949.254 km
Eccentricity
0.01288
Inclination
101.8986°
RAAN
93.1579°
Arg. of periapsis
280.8413°
True anomaly
234.6398°
Mean anomaly
235.8499°
Eccentric anomaly
235.24375°
Mean motion
3.06234 °/min
Orbital period
117.56 mins
BSTAR
0.00072376
Loading maneuver chart data...
Computing Atmospheric mass density...
Loading historical data...
Loading historical data...
Loading historical data...
Loading historical data...
Loading historical data...
Loading historical data...
Loading historical data...

Documentation

Showing up to 5 results
|